Madison, SD

6:33 PM CST on December 07, 2019 (GMT -0600)
Madison Municipal

Weather History for KMDS - September, 2019

Change the Weather History Date:

Thursday, September 19, 2019

  Actual Average Record
Temperature  
Mean Temperature 66 °F -  
Max Temperature 78 °F 72 °F 80 °F (2014)
Min Temperature 55 °F 48 °F 39 °F (2015)
Cooling Degree Days 2    
Growing Degree Days 16 (Base 50)    
Moisture  
Dew Point 64 °F    
Average Humidity 89    
Maximum Humidity 100    
Minimum Humidity 65    
Precipitation  
Precipitation 0.00 in - - ()
Sea Level Pressure  
Sea Level Pressure 29.98 in    
Wind  
Wind Speed 5 mph ()    
Max Wind Speed 15 mph    
Max Gust Speed 17 mph    
Visibility 9.8 miles    
Events      
Averages and records for this station are not official NWS values.
T = Trace of Precipitation, MM = Missing Value Source: Averaged Metar Reports

Daily Weather History Graph

Daily Weather History Graph

Search for Another Location

Airport or City:

Astronomy

Sep. 19, 2019 Rise Set
Actual Time 7:11 AM CDT 7:31 PM CDT
Civil Twilight 6:42 AM CDT 8:00 PM CDT
Nautical Twilight 6:08 AM CDT 8:34 PM CDT
Astronomical Twilight 5:33 AM CDT 9:09 PM CDT
Moon 10:30 PM CDT (9/19) 12:26 PM CDT (9/19)
Length of Visible Light 13h 17m
Length of Day
12h 19m
Waning Gibbous, 74% of the Moon is Illuminated
Sep 19
Waning Gibbous
Sep 21
Last Quarter
Sep 28
New
Oct 5
First Quarter
Oct 13
Full

Hourly Weather History & Observations

Time (CDT) Temp. Dew Point Humidity Pressure Visibility Wind Dir Wind Speed Gust Speed Precip Events Conditions
12:00 AM 59.0 °F 59.0 °F 100% 30.00 in 10.0 mi South 5.8 mph - N/A   Clear
12:15 AM 59.0 °F 59.0 °F 100% 30.00 in 10.0 mi South 4.6 mph - N/A   Clear
12:35 AM 59.0 °F 59.0 °F 100% 30.00 in 10.0 mi South 5.8 mph - N/A   Clear
12:40 AM 59.0 °F 59.0 °F 100% 30.00 in 10.0 mi South 4.6 mph - N/A   Clear
12:55 AM 59.0 °F 59.0 °F 100% 29.99 in 10.0 mi Calm Calm - N/A   Clear
1:00 AM 59.0 °F 59.0 °F 100% 29.99 in 10.0 mi Calm Calm - N/A   Clear
1:15 AM 59.0 °F 59.0 °F 100% 29.98 in 10.0 mi Calm Calm - N/A   Clear
1:20 AM 59.0 °F 59.0 °F 100% 29.98 in 10.0 mi Calm Calm - N/A   Clear
1:35 AM 59.0 °F 59.0 °F 100% 29.99 in 10.0 mi Calm Calm - N/A   Clear
1:55 AM 59.0 °F 59.0 °F 100% 29.99 in 10.0 mi Calm Calm - N/A   Clear
2:15 AM 59.0 °F 59.0 °F 100% 29.99 in 10.0 mi Calm Calm - N/A   Clear
2:35 AM 57.2 °F 57.2 °F 100% 29.99 in 10.0 mi Calm Calm - N/A   Clear
2:40 AM 59.0 °F 59.0 °F 100% 29.99 in 10.0 mi Calm Calm - N/A   Clear
2:55 AM 57.2 °F 57.2 °F 100% 29.99 in 10.0 mi Calm Calm - N/A   Clear
3:15 AM 57.2 °F 57.2 °F 100% 30.00 in 10.0 mi Calm Calm - N/A   Clear
3:20 AM 57.2 °F 57.2 °F 100% 30.00 in 10.0 mi Calm Calm - N/A   Clear
3:35 AM 57.2 °F 57.2 °F 100% 30.00 in 10.0 mi Calm Calm - N/A   Clear
3:40 AM 57.2 °F 57.2 °F 100% 30.00 in 10.0 mi Calm Calm - N/A   Clear
3:55 AM 55.4 °F 55.4 °F 100% 29.98 in 5.0 mi NNW 3.5 mph - N/A   Clear
4:00 AM 57.2 °F 57.2 °F 100% 29.99 in 10.0 mi Calm Calm - N/A   Clear
4:15 AM 55.4 °F 55.4 °F 100% 29.98 in 10.0 mi North 3.5 mph - N/A   Clear
4:35 AM 55.4 °F 55.4 °F 100% 29.98 in 10.0 mi NNW 4.6 mph - N/A   Clear
4:40 AM 55.4 °F 55.4 °F 100% 29.98 in 10.0 mi NNW 3.5 mph - N/A   Clear
4:55 AM 57.2 °F 57.2 °F 100% 29.99 in 10.0 mi Calm Calm - N/A   Clear
5:15 AM 57.2 °F 57.2 °F 100% 29.99 in 10.0 mi Calm Calm - N/A   Clear
5:35 AM 55.4 °F 55.4 °F 100% 30.00 in 10.0 mi South 6.9 mph - N/A   Clear
5:40 AM 55.4 °F 55.4 °F 100% 30.00 in 10.0 mi South 5.8 mph - N/A   Clear
5:55 AM 57.2 °F 57.2 °F 100% 30.00 in 10.0 mi South 8.1 mph - N/A   Clear
6:15 AM 57.2 °F 57.2 °F 100% 29.99 in 10.0 mi South 6.9 mph - N/A   Clear
6:20 AM 57.2 °F 57.2 °F 100% 29.99 in 10.0 mi South 5.8 mph - N/A   Clear
6:35 AM 57.2 °F 57.2 °F 100% 30.00 in 10.0 mi SSE 4.6 mph - N/A   Clear
6:40 AM 57.2 °F 57.2 °F 100% 30.00 in 10.0 mi Calm Calm - N/A   Clear
6:55 AM 57.2 °F 57.2 °F 100% 30.00 in 10.0 mi SSE 3.5 mph - N/A   Clear
7:00 AM 57.2 °F 57.2 °F 100% 30.00 in 10.0 mi Calm Calm - N/A   Clear
7:15 AM 57.2 °F 57.2 °F 100% 30.00 in 10.0 mi Calm Calm - N/A   Clear
7:35 AM 57.2 °F 57.2 °F 100% 30.00 in 10.0 mi ENE 4.6 mph - N/A   Clear
7:55 AM 55.4 °F 55.4 °F 100% 30.01 in 1.2 mi East 4.6 mph - N/A   Clear
8:00 AM 55.4 °F 55.4 °F 100% 30.01 in 0.8 mi East 3.5 mph - N/A   Mist
8:15 AM 57.2 °F 57.2 °F 100% 30.02 in 10.0 mi East 3.5 mph - N/A   Clear
8:20 AM 57.2 °F 57.2 °F 100% 30.02 in 10.0 mi ENE 3.5 mph - N/A   Clear
8:40 AM 59.0 °F 59.0 °F 100% 30.02 in 10.0 mi ENE 3.5 mph - N/A   Clear
8:55 AM 60.8 °F 60.8 °F 100% 30.02 in 10.0 mi Calm Calm - N/A   Clear
9:15 AM 62.6 °F 62.6 °F 100% 30.02 in 10.0 mi ENE 4.6 mph - N/A   Clear
9:35 AM 64.4 °F 64.4 °F 100% 30.02 in 10.0 mi ENE 5.8 mph - N/A   Clear
9:40 AM 66.2 °F 66.2 °F 100% 30.02 in 10.0 mi East 5.8 mph - N/A   Clear
9:55 AM 66.2 °F 66.2 °F 100% 30.02 in 10.0 mi East 6.9 mph - N/A   Clear
10:00 AM 66.2 °F 66.2 °F 100% 30.02 in 10.0 mi East 8.1 mph - N/A   Clear
10:15 AM 68.0 °F 68.0 °F 100% 30.02 in 10.0 mi East 8.1 mph - N/A   Clear
10:35 AM 71.6 °F 66.2 °F 83% 30.02 in 10.0 mi ESE 9.2 mph - N/A   Clear
10:40 AM 71.6 °F 66.2 °F 83% 30.02 in 10.0 mi ESE 10.4 mph - N/A   Clear
10:55 AM 71.6 °F 66.2 °F 83% 30.02 in 10.0 mi SE 9.2 mph - N/A   Clear
11:00 AM 71.6 °F 66.2 °F 83% 30.02 in 10.0 mi SE 11.5 mph - N/A   Clear
11:15 AM 73.4 °F 64.4 °F 73% 30.02 in 10.0 mi SE 11.5 mph - N/A   Clear
11:35 AM 73.4 °F 64.4 °F 73% 30.01 in 10.0 mi SE 10.4 mph - N/A   Clear
11:40 AM 73.4 °F 66.2 °F 78% 30.02 in 10.0 mi SSE 12.7 mph 17.3 mph N/A   Clear
11:55 AM 73.4 °F 62.6 °F 69% 30.02 in 10.0 mi SE 12.7 mph - N/A   Clear
12:15 PM 75.2 °F 64.4 °F 69% 30.02 in 10.0 mi SE 10.4 mph - N/A   Clear
12:20 PM 75.2 °F 66.2 °F 73% 30.01 in 10.0 mi SE 13.8 mph - N/A   Clear
12:35 PM 75.2 °F 66.2 °F 73% 30.01 in 10.0 mi SE 10.4 mph - N/A   Clear
12:55 PM 75.2 °F 66.2 °F 73% 30.01 in 10.0 mi SSE 10.4 mph - N/A   Clear
1:00 PM 75.2 °F 64.4 °F 69% 30.01 in 10.0 mi SE 11.5 mph - N/A   Clear
1:15 PM 75.2 °F 66.2 °F 73% 30.00 in 10.0 mi SE 11.5 mph - N/A   Clear
1:20 PM 75.2 °F 66.2 °F 73% 30.00 in 10.0 mi SE 10.4 mph - N/A   Clear
1:35 PM 75.2 °F 66.2 °F 73% 30.00 in 10.0 mi SE 12.7 mph - N/A   Clear
1:55 PM 77.0 °F 66.2 °F 69% 29.99 in 10.0 mi SE 15.0 mph - N/A   Clear
2:15 PM 77.0 °F 66.2 °F 69% 29.98 in 10.0 mi SE 12.7 mph - N/A   Clear
2:20 PM 77.0 °F 66.2 °F 69% 29.98 in 10.0 mi SE 9.2 mph - N/A   Clear
2:35 PM 77.0 °F 66.2 °F 69% 29.98 in 10.0 mi SE 10.4 mph - N/A   Clear
2:40 PM 77.0 °F 66.2 °F 69% 29.98 in 10.0 mi SSE 10.4 mph - N/A   Clear
2:55 PM 77.0 °F 66.2 °F 69% 29.98 in 10.0 mi SE 10.4 mph 16.1 mph N/A   Clear
3:00 PM 77.0 °F 66.2 °F 69% 29.98 in 10.0 mi SE 11.5 mph 16.1 mph N/A   Clear
3:15 PM 77.0 °F 66.2 °F 69% 29.98 in 10.0 mi SE 13.8 mph - N/A   Clear
3:35 PM 78.8 °F 66.2 °F 65% 29.97 in 10.0 mi SE 12.7 mph - N/A   Clear
3:40 PM 78.8 °F 66.2 °F 65% 29.97 in 10.0 mi SE 13.8 mph - N/A   Clear
3:55 PM 78.8 °F 66.2 °F 65% 29.97 in 10.0 mi SE 13.8 mph - N/A   Clear
4:00 PM 78.8 °F 66.2 °F 65% 29.96 in 10.0 mi SE 10.4 mph - N/A   Clear
4:15 PM 77.0 °F 64.4 °F 65% 29.96 in 10.0 mi SSE 11.5 mph 17.3 mph N/A   Clear
4:35 PM 78.8 °F 66.2 °F 65% 29.95 in 10.0 mi SE 12.7 mph - N/A   Clear
4:40 PM 78.8 °F 66.2 °F 65% 29.95 in 10.0 mi SE 11.5 mph - N/A   Clear
4:55 PM 78.8 °F 66.2 °F 65% 29.95 in 10.0 mi SE 13.8 mph - N/A   Clear
5:00 PM 78.8 °F 66.2 °F 65% 29.95 in 10.0 mi SE 11.5 mph - N/A   Clear
5:15 PM 78.8 °F 66.2 °F 65% 29.94 in 10.0 mi SE 11.5 mph 17.3 mph N/A   Clear
5:20 PM 78.8 °F 66.2 °F 65% 29.95 in 10.0 mi SSE 12.7 mph 17.3 mph N/A   Clear
5:35 PM 78.8 °F 66.2 °F 65% 29.95 in 10.0 mi SE 10.4 mph 17.3 mph N/A   Clear
5:40 PM 78.8 °F 66.2 °F 65% 29.95 in 10.0 mi SE 10.4 mph 17.3 mph N/A   Clear
5:55 PM 77.0 °F 66.2 °F 69% 29.96 in 10.0 mi SE 11.5 mph - N/A   Clear
6:00 PM 77.0 °F 66.2 °F 69% 29.95 in 10.0 mi SE 9.2 mph - N/A   Clear
6:15 PM 75.2 °F 66.2 °F 73% 29.96 in 10.0 mi SSE 8.1 mph - N/A   Clear
6:20 PM 75.2 °F 68.0 °F 78% 29.96 in 10.0 mi SSE 6.9 mph - N/A   Clear
6:35 PM 75.2 °F 68.0 °F 78% 29.95 in 10.0 mi SE 9.2 mph - N/A   Clear
6:55 PM 75.2 °F 68.0 °F 78% 29.95 in 10.0 mi SE 9.2 mph - N/A   Clear
7:00 PM 73.4 °F 68.0 °F 83% 29.96 in 10.0 mi SE 8.1 mph - N/A   Clear
7:15 PM 73.4 °F 71.6 °F 94% 29.95 in 10.0 mi ESE 6.9 mph - N/A   Clear
7:20 PM 71.6 °F 71.6 °F 100% 29.94 in 10.0 mi ESE 6.9 mph - N/A   Clear
7:35 PM 71.6 °F 71.6 °F 100% 29.95 in 10.0 mi SE 8.1 mph - N/A   Clear
7:40 PM 71.6 °F 71.6 °F 100% 29.95 in 10.0 mi SE 8.1 mph - N/A   Clear
7:55 PM 69.8 °F 69.8 °F 100% 29.95 in 10.0 mi SE 8.1 mph - N/A   Clear
8:00 PM 69.8 °F 69.8 °F 100% 29.95 in 10.0 mi ESE 8.1 mph - N/A   Clear
8:15 PM 69.8 °F 69.8 °F 100% 29.95 in 10.0 mi ESE 9.2 mph - N/A   Clear
8:35 PM 69.8 °F 69.8 °F 100% 29.95 in 10.0 mi SE 9.2 mph - N/A   Clear
8:40 PM 69.8 °F 69.8 °F 100% 29.95 in 10.0 mi SE 9.2 mph - N/A   Clear
8:55 PM 69.8 °F 69.8 °F 100% 29.96 in 10.0 mi SE 11.5 mph - N/A   Clear
9:15 PM 71.6 °F 71.6 °F 100% 29.96 in 10.0 mi SE 11.5 mph - N/A   Clear
9:35 PM 69.8 °F 69.8 °F 100% 29.95 in 10.0 mi SE 10.4 mph - N/A   Clear
9:55 PM 69.8 °F 69.8 °F 100% 29.96 in 10.0 mi SE 10.4 mph - N/A   Clear
10:00 PM 69.8 °F 69.8 °F 100% 29.96 in 10.0 mi SE 11.5 mph - N/A   Clear
10:15 PM 68.0 °F 68.0 °F 100% 29.97 in 10.0 mi SE 10.4 mph - N/A   Clear
10:35 PM 68.0 °F 68.0 °F 100% 29.97 in 10.0 mi SE 10.4 mph - N/A   Clear
10:40 PM 68.0 °F 68.0 °F 100% 29.97 in 10.0 mi SE 10.4 mph - N/A   Clear
10:55 PM 68.0 °F 68.0 °F 100% 29.97 in 10.0 mi SE 10.4 mph - N/A   Clear
11:00 PM 68.0 °F 68.0 °F 100% 29.97 in 10.0 mi SE 10.4 mph - N/A   Clear
11:15 PM 68.0 °F 68.0 °F 100% 29.97 in 10.0 mi SE 10.4 mph - N/A   Clear
11:20 PM 68.0 °F 68.0 °F 100% 29.97 in 10.0 mi SE 10.4 mph - N/A   Clear
11:35 PM 68.0 °F 68.0 °F 100% 29.98 in 10.0 mi SE 10.4 mph - N/A   Clear
11:55 PM 68.0 °F 68.0 °F 100% 29.97 in 10.0 mi SE 11.5 mph - N/A   Clear